Location: Chuathbaluk
(61.5726°N, 159.2454°W)
Time: 03:52:37
(UTC+00:00)

Transit 2A - Pass Details

Date: 03 December 2020
Orbit: 599 x 960 km, 66.7° (Epoch: 26 January)

Event Time Altitude Azimuth Distance (km) Brightness Sun altitude
Enters shadow 10:05:44 - 305° (NW) 3,488 9.8 -50.4°
Rises 10:05:53 0° 305° (NW) 3,430 - -50.5°
Reaches altitude 10° 10:08:28 10° 304° (NW) 2,436 - -50.5°
Maximum altitude 10:14:03 80° 219° (SW) 781 - -50.6°
Drops below altitude 10° 10:19:02 10° 133° (SE) 2,182 - -50.6°
Sets 10:21:15 0° 132° (SE) 3,047 - -50.6°
